TRA54 LKPR-EHAM

Flight info

Callsign TRA54
Flight time 1h 14m
Altitude 32000
Route BALTU DCT DONAD DCT VARIK L602 SODRO DCT KATCE DCT APEBE DCT NORKU
Aircraft B738/M-SDE2E3FGHIRWXY/LB1

Departure

Time 2026-05-05 20:26
Airport Václav Havel Airport Prague (LKPR)

Arrival

Time 2026-05-05 21:40
Airport Amsterdam Airport Schiphol (EHAM)
Time Latitude Longitude Altitude Speed Heading
2026-05-05 20:08 50.10734 14.26298 1178 ft 0 kts 214°
2026-05-05 20:15 50.10735 14.26299 1177 ft 0 kts 214°
2026-05-05 20:16 50.10740 14.26304 1177 ft 2 kts 214°
2026-05-05 20:16 50.10752 14.26318 1177 ft 2 kts 214°
2026-05-05 20:16 50.10764 14.26331 1177 ft 2 kts 214°
2026-05-05 20:16 50.10777 14.26344 1177 ft 2 kts 214°
2026-05-05 20:17 50.10787 14.26359 1177 ft 2 kts 252°
2026-05-05 20:17 50.10788 14.26381 1177 ft 2 kts 292°
2026-05-05 20:17 50.10784 14.26390 1177 ft 1 kts 310°
2026-05-05 20:17 50.10782 14.26395 1177 ft 0 kts 305°
2026-05-05 20:18 50.10785 14.26388 1177 ft 1 kts 305°
2026-05-05 20:18 50.10792 14.26373 1177 ft 0 kts 306°
2026-05-05 20:18 50.10805 14.26346 1176 ft 8 kts 305°
2026-05-05 20:19 50.10785 14.26233 1176 ft 22 kts 214°
2026-05-05 20:19 50.10658 14.26096 1180 ft 19 kts 215°
2026-05-05 20:19 50.10564 14.26004 1182 ft 13 kts 213°
2026-05-05 20:19 50.10535 14.25902 1182 ft 12 kts 292°
2026-05-05 20:20 50.10587 14.25777 1180 ft 13 kts 304°
2026-05-05 20:20 50.10635 14.25649 1178 ft 15 kts 298°
2026-05-05 20:20 50.10687 14.25502 1176 ft 16 kts 298°
2026-05-05 20:20 50.10742 14.25348 1173 ft 15 kts 299°
2026-05-05 20:21 50.10791 14.25204 1172 ft 14 kts 292°
2026-05-05 20:21 50.10815 14.25060 1171 ft 14 kts 277°
2026-05-05 20:21 50.10817 14.24818 1170 ft 48 kts 261°
2026-05-05 20:21 50.10626 14.24103 1176 ft 68 kts 243°
2026-05-05 20:22 50.10531 14.23791 1183 ft 12 kts 245°
2026-05-05 20:22 50.10492 14.23653 1186 ft 13 kts 245°
2026-05-05 20:22 50.10427 14.23506 1190 ft 20 kts 227°
2026-05-05 20:22 50.10322 14.23418 1193 ft 14 kts 180°
2026-05-05 20:23 50.10236 14.23503 1192 ft 19 kts 112°
2026-05-05 20:23 50.10236 14.23722 1188 ft 23 kts 79°
2026-05-05 20:23 50.10271 14.24001 1182 ft 25 kts 79°
2026-05-05 20:23 50.10304 14.24271 1176 ft 24 kts 79°
2026-05-05 20:24 50.10362 14.24330 1176 ft 13 kts 288°
2026-05-05 20:24 50.10462 14.24234 1176 ft 25 kts 10°
2026-05-05 20:24 50.10622 14.24377 1173 ft 26 kts 35°
2026-05-05 20:24 50.10750 14.24526 1171 ft 12 kts 55°
2026-05-05 20:25 50.10768 14.24591 1171 ft 4 kts 87°
2026-05-05 20:25 50.10760 14.24631 1170 ft 2 kts 117°
2026-05-05 20:25 50.10747 14.24658 1170 ft 3 kts 127°
2026-05-05 20:25 50.10685 14.24780 1171 ft 48 kts 127°
2026-05-05 20:26 50.10325 14.25531 1184 ft 123 kts 127°
2026-05-05 20:26 50.09672 14.26870 1229 ft 182 kts 127°
2026-05-05 20:26 50.08886 14.28492 1863 ft 196 kts 126°
2026-05-05 20:26 50.08044 14.30238 2617 ft 210 kts 127°
2026-05-05 20:27 50.07158 14.32067 3423 ft 220 kts 128°
2026-05-05 20:27 50.06244 14.33952 4319 ft 217 kts 128°
2026-05-05 20:27 50.05331 14.35833 4993 ft 224 kts 129°
2026-05-05 20:27 50.04382 14.37790 5614 ft 234 kts 129°
2026-05-05 20:28 50.03355 14.39902 6123 ft 252 kts 129°
2026-05-05 20:28 50.02297 14.42104 6740 ft 264 kts 127°
2026-05-05 20:28 50.01393 14.44695 7307 ft 281 kts 110°
2026-05-05 20:28 50.01123 14.47696 8063 ft 290 kts 88°
2026-05-05 20:29 50.01511 14.50810 8845 ft 297 kts 72°
2026-05-05 20:29 50.02399 14.53710 9564 ft 305 kts 55°
2026-05-05 20:29 50.03898 14.56115 10225 ft 314 kts 38°
2026-05-05 20:29 50.05672 14.58162 10702 ft 329 kts 35°
2026-05-05 20:30 50.07577 14.60230 11291 ft 339 kts 35°
2026-05-05 20:30 50.09569 14.62232 11979 ft 345 kts 28°
2026-05-05 20:30 50.11791 14.63628 12746 ft 348 kts 13°
2026-05-05 20:30 50.14196 14.63975 13463 ft 351 kts 353°
2026-05-05 20:31 50.16558 14.63107 14133 ft 354 kts 337°
2026-05-05 20:31 50.18809 14.61596 14817 ft 357 kts 333°
2026-05-05 20:31 50.21075 14.59955 15516 ft 360 kts 333°
2026-05-05 20:31 50.23329 14.58300 16163 ft 362 kts 333°
2026-05-05 20:32 50.25623 14.56620 16712 ft 367 kts 333°
2026-05-05 20:32 50.27944 14.54922 17337 ft 369 kts 332°
2026-05-05 20:32 50.30183 14.52954 17916 ft 370 kts 323°
2026-05-05 20:32 50.32191 14.50470 18483 ft 372 kts 313°
2026-05-05 20:33 50.33913 14.47506 19052 ft 371 kts 305°
2026-05-05 20:33 50.35406 14.44184 19619 ft 372 kts 298°
2026-05-05 20:33 50.36566 14.40590 20186 ft 371 kts 288°
2026-05-05 20:33 50.37319 14.36743 20698 ft 371 kts 279°
2026-05-05 20:34 50.37720 14.32803 21199 ft 371 kts 272°
2026-05-05 20:34 50.37787 14.28753 21725 ft 370 kts 264°
2026-05-05 20:34 50.37452 14.24822 22189 ft 370 kts 255°
2026-05-05 20:34 50.36707 14.20927 22635 ft 371 kts 247°
2026-05-05 20:35 50.35652 14.17319 23109 ft 372 kts 240°
2026-05-05 20:35 50.34355 14.13837 23608 ft 372 kts 234°
2026-05-05 20:35 50.32762 14.10593 24008 ft 374 kts 226°
2026-05-05 20:35 50.30946 14.07765 24545 ft 373 kts 224°
2026-05-05 20:36 50.29254 14.04621 24916 ft 379 kts 233°
2026-05-05 20:36 50.27925 14.01062 25315 ft 383 kts 242°
2026-05-05 20:36 50.26915 13.97210 25733 ft 387 kts 249°
2026-05-05 20:36 50.26134 13.93176 26142 ft 390 kts 253°
2026-05-05 20:37 50.25497 13.89052 26478 ft 395 kts 255°
2026-05-05 20:37 50.24936 13.84886 26910 ft 396 kts 256°
2026-05-05 20:37 50.24392 13.80647 27242 ft 399 kts 256°
2026-05-05 20:37 50.23856 13.76398 27595 ft 402 kts 256°
2026-05-05 20:38 50.23267 13.72159 27992 ft 402 kts 253°
2026-05-05 20:38 50.22401 13.68026 28376 ft 401 kts 245°
2026-05-05 20:38 50.21202 13.64065 28657 ft 403 kts 240°
2026-05-05 20:38 50.19830 13.60265 29010 ft 403 kts 237°
2026-05-05 20:39 50.18387 13.56548 29354 ft 405 kts 236°
2026-05-05 20:39 50.16899 13.52812 29614 ft 408 kts 236°
2026-05-05 20:39 50.15398 13.49050 29937 ft 410 kts 236°
2026-05-05 20:39 50.13888 13.45244 30192 ft 414 kts 236°
2026-05-05 20:40 50.12387 13.41437 30526 ft 415 kts 237°
2026-05-05 20:40 50.10915 13.37529 30811 ft 418 kts 239°
2026-05-05 20:40 50.09646 13.33414 31132 ft 423 kts 245°
2026-05-05 20:40 50.08688 13.29129 31547 ft 426 kts 251°
2026-05-05 20:41 50.08027 13.24551 31766 ft 432 kts 258°
2026-05-05 20:41 50.07738 13.15155 31775 ft 435 kts 267°
2026-05-05 20:42 50.07902 13.05674 31782 ft 440 kts 273°
2026-05-05 20:42 50.09528 12.96464 31832 ft 449 kts 290°
2026-05-05 20:42 50.10843 12.92034 32325 ft 448 kts 293°
2026-05-05 20:43 50.12236 12.87745 33002 ft 442 kts 294°
2026-05-05 20:43 50.13653 12.83556 33603 ft 436 kts 294°
2026-05-05 20:43 50.15085 12.79399 34177 ft 431 kts 294°
2026-05-05 20:43 50.16490 12.75334 34561 ft 430 kts 294°
2026-05-05 20:44 50.17921 12.71175 34718 ft 434 kts 294°
2026-05-05 20:44 50.19346 12.67015 34921 ft 435 kts 294°
2026-05-05 20:44 50.20766 12.62852 35145 ft 437 kts 294°
2026-05-05 20:44 50.22207 12.58616 35319 ft 438 kts 294°
2026-05-05 20:45 50.25068 12.50159 35729 ft 441 kts 294°
2026-05-05 20:45 50.27934 12.41652 35794 ft 449 kts 294°
2026-05-05 20:46 50.30808 12.32855 35791 ft 457 kts 291°
2026-05-05 20:46 50.33476 12.23848 35779 ft 457 kts 290°
2026-05-05 20:47 50.36151 12.14764 35793 ft 460 kts 291°
2026-05-05 20:47 50.38999 12.05805 35787 ft 460 kts 293°
2026-05-05 20:48 50.41897 11.96885 35784 ft 461 kts 293°
2026-05-05 20:48 50.44828 11.87898 35791 ft 462 kts 295°
2026-05-05 20:49 50.48250 11.79398 35795 ft 466 kts 303°
2026-05-05 20:49 50.52343 11.71488 35792 ft 469 kts 308°
2026-05-05 20:50 50.56662 11.63715 35778 ft 470 kts 308°
2026-05-05 20:50 50.60947 11.56022 35784 ft 470 kts 308°
2026-05-05 20:51 50.65246 11.48202 35777 ft 472 kts 308°
2026-05-05 20:51 50.69526 11.40331 35777 ft 472 kts 307°
2026-05-05 20:52 50.73769 11.32469 35785 ft 472 kts 307°
2026-05-05 20:52 50.78005 11.24581 35794 ft 471 kts 306°
2026-05-05 20:53 50.82228 11.16683 35792 ft 472 kts 306°
2026-05-05 20:53 50.86470 11.08724 35799 ft 474 kts 307°
2026-05-05 20:54 50.90714 11.00738 35788 ft 471 kts 306°
2026-05-05 20:54 50.94965 10.92713 35808 ft 473 kts 306°
2026-05-05 20:55 50.99162 10.84764 35799 ft 475 kts 306°
2026-05-05 20:55 51.03424 10.76672 35797 ft 475 kts 306°
2026-05-05 20:56 51.07651 10.68623 35791 ft 476 kts 306°
2026-05-05 20:56 51.11894 10.60519 35792 ft 475 kts 306°
2026-05-05 20:57 51.16114 10.52430 35796 ft 478 kts 306°
2026-05-05 20:57 51.20342 10.44299 35793 ft 478 kts 306°
2026-05-05 20:58 51.24476 10.35990 35796 ft 476 kts 301°
2026-05-05 20:58 51.27898 10.27009 35799 ft 471 kts 293°
2026-05-05 20:59 51.30898 10.17731 35798 ft 472 kts 291°
2026-05-05 20:59 51.33856 10.08268 35796 ft 472 kts 292°
2026-05-05 21:00 51.36803 9.98868 35795 ft 473 kts 292°
2026-05-05 21:00 51.39745 9.89535 35793 ft 474 kts 292°
2026-05-05 21:01 51.42724 9.80103 35800 ft 474 kts 292°
2026-05-05 21:01 51.45679 9.70735 35795 ft 473 kts 292°
2026-05-05 21:02 51.48648 9.61285 35804 ft 473 kts 292°
2026-05-05 21:02 51.51595 9.51868 35813 ft 475 kts 291°
2026-05-05 21:03 51.54531 9.42454 35822 ft 473 kts 291°
2026-05-05 21:03 51.57453 9.33045 35820 ft 473 kts 291°
2026-05-05 21:04 51.60395 9.23548 35824 ft 473 kts 291°
2026-05-05 21:04 51.63335 9.14009 35825 ft 474 kts 290°
2026-05-05 21:05 51.66228 9.04602 35825 ft 472 kts 290°
2026-05-05 21:05 51.69130 8.95121 35822 ft 473 kts 290°
2026-05-05 21:06 51.72038 8.85577 35821 ft 473 kts 290°
2026-05-05 21:06 51.74896 8.76121 35822 ft 472 kts 290°
2026-05-05 21:07 51.77589 8.66458 35824 ft 472 kts 288°
2026-05-05 21:07 51.80166 8.56759 35821 ft 471 kts 288°
2026-05-05 21:08 51.82736 8.47048 35823 ft 469 kts 288°
2026-05-05 21:08 51.85298 8.37404 35826 ft 468 kts 288°
2026-05-05 21:09 51.87870 8.27745 35825 ft 469 kts 288°
2026-05-05 21:09 51.90447 8.18040 35835 ft 468 kts 288°
2026-05-05 21:10 51.93004 8.08393 35830 ft 466 kts 288°
2026-05-05 21:10 51.95540 7.98759 35846 ft 467 kts 288°
2026-05-05 21:11 51.98071 7.89133 35843 ft 465 kts 288°
2026-05-05 21:11 52.00588 7.79522 35846 ft 467 kts 288°
2026-05-05 21:12 52.03125 7.69791 35849 ft 465 kts 288°
2026-05-05 21:12 52.05631 7.60133 35859 ft 465 kts 288°
2026-05-05 21:13 52.06873 7.55335 35636 ft 462 kts 288°
2026-05-05 21:13 52.08109 7.50547 35205 ft 461 kts 288°
2026-05-05 21:13 52.09337 7.45778 34477 ft 464 kts 288°
2026-05-05 21:13 52.10576 7.40946 33674 ft 466 kts 288°
2026-05-05 21:14 52.11810 7.36117 32887 ft 467 kts 289°
2026-05-05 21:14 52.13066 7.31195 32067 ft 468 kts 288°
2026-05-05 21:14 52.14301 7.26349 31393 ft 466 kts 288°
2026-05-05 21:14 52.15546 7.21471 30818 ft 462 kts 289°
2026-05-05 21:15 52.16758 7.16715 30218 ft 458 kts 289°
2026-05-05 21:15 52.17984 7.11883 29612 ft 454 kts 289°
2026-05-05 21:15 52.19168 7.07207 29019 ft 450 kts 289°
2026-05-05 21:15 52.20407 7.02517 28419 ft 453 kts 291°
2026-05-05 21:16 52.21829 6.97857 27896 ft 459 kts 297°
2026-05-05 21:16 52.23523 6.93518 27651 ft 462 kts 302°
2026-05-05 21:16 52.25438 6.89312 27158 ft 464 kts 306°
2026-05-05 21:16 52.27441 6.85234 26568 ft 459 kts 307°
2026-05-05 21:17 52.29458 6.81266 25961 ft 455 kts 308°
2026-05-05 21:17 52.31475 6.77348 25349 ft 451 kts 308°
2026-05-05 21:17 52.33471 6.73469 24747 ft 446 kts 308°
2026-05-05 21:17 52.35471 6.69559 24134 ft 442 kts 308°
2026-05-05 21:18 52.37414 6.65733 23540 ft 438 kts 308°
2026-05-05 21:18 52.39340 6.61911 22952 ft 434 kts 307°
2026-05-05 21:18 52.41251 6.58094 22361 ft 430 kts 308°
2026-05-05 21:18 52.43117 6.54350 21779 ft 427 kts 308°
2026-05-05 21:19 52.44899 6.50510 21180 ft 423 kts 303°
2026-05-05 21:19 52.46321 6.46354 20588 ft 417 kts 291°
2026-05-05 21:19 52.47137 6.41834 19995 ft 411 kts 279°
2026-05-05 21:19 52.47524 6.37260 19404 ft 407 kts 275°
2026-05-05 21:20 52.47768 6.32881 18844 ft 404 kts 273°
2026-05-05 21:20 52.47978 6.28149 18238 ft 401 kts 273°
2026-05-05 21:20 52.48159 6.23598 17644 ft 399 kts 273°
2026-05-05 21:20 52.48341 6.19090 17065 ft 396 kts 273°
2026-05-05 21:21 52.48530 6.14622 16483 ft 394 kts 274°
2026-05-05 21:21 52.48725 6.10158 15901 ft 391 kts 274°
2026-05-05 21:21 52.48920 6.05766 15319 ft 388 kts 274°
2026-05-05 21:21 52.49119 6.01382 14739 ft 385 kts 275°
2026-05-05 21:22 52.49321 5.97019 14148 ft 382 kts 274°
2026-05-05 21:22 52.49520 5.92723 13589 ft 378 kts 275°
2026-05-05 21:22 52.49718 5.88406 12997 ft 375 kts 275°
2026-05-05 21:22 52.49913 5.84201 12467 ft 371 kts 275°
2026-05-05 21:23 52.50103 5.80062 11923 ft 368 kts 275°
2026-05-05 21:23 52.50296 5.75860 11327 ft 365 kts 275°
2026-05-05 21:23 52.50482 5.71742 10794 ft 360 kts 276°
2026-05-05 21:23 52.50666 5.67684 10383 ft 353 kts 276°
2026-05-05 21:24 52.50843 5.63744 10199 ft 338 kts 275°
2026-05-05 21:24 52.51009 5.59977 10091 ft 324 kts 275°
2026-05-05 21:24 52.50997 5.56370 9915 ft 313 kts 265°
2026-05-05 21:24 52.50527 5.52965 9902 ft 297 kts 253°
2026-05-05 21:25 52.49829 5.49858 9902 ft 282 kts 250°
2026-05-05 21:25 52.49110 5.46938 9907 ft 278 kts 250°
2026-05-05 21:25 52.48394 5.43936 9907 ft 281 kts 251°
2026-05-05 21:25 52.47717 5.40927 9902 ft 281 kts 252°
2026-05-05 21:26 52.47057 5.37896 9910 ft 280 kts 252°
2026-05-05 21:26 52.46411 5.34895 9907 ft 281 kts 251°
2026-05-05 21:26 52.45764 5.31890 9912 ft 281 kts 251°
2026-05-05 21:26 52.45113 5.28880 9914 ft 281 kts 251°
2026-05-05 21:27 52.44459 5.25871 9915 ft 280 kts 251°
2026-05-05 21:27 52.43807 5.22877 9911 ft 281 kts 251°
2026-05-05 21:27 52.43147 5.19863 9917 ft 280 kts 251°
2026-05-05 21:27 52.42473 5.16783 9916 ft 290 kts 251°
2026-05-05 21:28 52.41787 5.13661 9910 ft 292 kts 251°
2026-05-05 21:28 52.41104 5.10561 9923 ft 291 kts 251°
2026-05-05 21:28 52.40424 5.07471 9919 ft 292 kts 251°
2026-05-05 21:28 52.39738 5.04350 9877 ft 292 kts 251°
2026-05-05 21:29 52.39051 5.01230 9577 ft 295 kts 251°
2026-05-05 21:29 52.38362 4.98104 9185 ft 295 kts 251°
2026-05-05 21:29 52.37670 4.94972 8814 ft 293 kts 251°
2026-05-05 21:29 52.36977 4.91838 8451 ft 292 kts 251°
2026-05-05 21:30 52.36293 4.88746 8089 ft 291 kts 251°
2026-05-05 21:30 52.35613 4.85676 7731 ft 290 kts 251°
2026-05-05 21:30 52.34934 4.82610 7368 ft 289 kts 251°
2026-05-05 21:30 52.34267 4.79603 7079 ft 285 kts 251°
2026-05-05 21:31 52.33632 4.76594 6976 ft 274 kts 256°
2026-05-05 21:31 52.33350 4.73590 6853 ft 262 kts 274°
2026-05-05 21:31 52.33630 4.70659 6417 ft 264 kts 287°
2026-05-05 21:31 52.34121 4.67797 6058 ft 264 kts 289°
2026-05-05 21:32 52.34560 4.64931 5697 ft 265 kts 281°
2026-05-05 21:32 52.34405 4.61920 5363 ft 267 kts 250°
2026-05-05 21:32 52.33523 4.59398 5043 ft 267 kts 235°
2026-05-05 21:32 52.32643 4.57503 4754 ft 268 kts 234°
2026-05-05 21:33 52.31359 4.54650 4339 ft 268 kts 237°
2026-05-05 21:33 52.30290 4.52055 3987 ft 267 kts 238°
2026-05-05 21:33 52.29302 4.49533 3640 ft 262 kts 239°
2026-05-05 21:33 52.28326 4.47044 3253 ft 258 kts 237°
2026-05-05 21:34 52.27166 4.44906 2927 ft 246 kts 216°
2026-05-05 21:34 52.25645 4.43954 2712 ft 227 kts 180°
2026-05-05 21:34 52.24148 4.44304 2594 ft 210 kts 156°
2026-05-05 21:34 52.22837 4.45280 2542 ft 208 kts 145°
2026-05-05 21:35 52.21759 4.46765 2477 ft 198 kts 118°
2026-05-05 21:35 52.21258 4.48762 2431 ft 190 kts 100°
2026-05-05 21:35 52.20936 4.50767 2375 ft 171 kts 96°
2026-05-05 21:35 52.20917 4.52690 2294 ft 168 kts 71°
2026-05-05 21:36 52.21433 4.54304 2252 ft 164 kts 55°
2026-05-05 21:36 52.22031 4.55891 2203 ft 164 kts 57°
2026-05-05 21:36 52.22609 4.57444 2146 ft 153 kts 56°
2026-05-05 21:36 52.23148 4.58840 2024 ft 143 kts 55°
2026-05-05 21:37 52.23668 4.60172 1956 ft 137 kts 55°
2026-05-05 21:37 52.24185 4.61507 1807 ft 140 kts 56°
2026-05-05 21:37 52.24702 4.62841 1591 ft 137 kts 56°
2026-05-05 21:37 52.25215 4.64171 1405 ft 141 kts 55°
2026-05-05 21:38 52.25733 4.65510 1215 ft 139 kts 56°
2026-05-05 21:38 52.26256 4.66849 1020 ft 140 kts 55°
2026-05-05 21:38 52.26789 4.68211 844 ft 142 kts 57°
2026-05-05 21:38 52.27298 4.69574 612 ft 145 kts 59°
2026-05-05 21:39 52.27850 4.70960 477 ft 139 kts 51°
2026-05-05 21:39 52.28366 4.72280 233 ft 137 kts 56°
2026-05-05 21:39 52.28869 4.73595 67 ft 138 kts 58°
2026-05-05 21:39 52.29362 4.74887 -4 ft 119 kts 57°
2026-05-05 21:40 52.29671 4.75704 -4 ft 55 kts 57°
2026-05-05 21:40 52.29882 4.76247 -4 ft 53 kts 58°
2026-05-05 21:40 52.30011 4.76520 -4 ft 20 kts 35°
2026-05-05 21:40 52.30136 4.76633 -4 ft 19 kts 28°
2026-05-05 21:41 52.30244 4.76730 -4 ft 16 kts 25°
2026-05-05 21:41 52.30338 4.76706 -4 ft 13 kts 295°
2026-05-05 21:41 52.30386 4.76562 -4 ft 15 kts 318°
2026-05-05 21:41 52.30446 4.76543 -4 ft 0 kts 105°
2026-05-05 21:42 52.30446 4.76546 -4 ft 0 kts 76°
2026-05-05 21:42 52.30455 4.76553 -4 ft 3 kts 25°
2026-05-05 21:42 52.30466 4.76569 -4 ft 1 kts 49°
2026-05-05 21:42 52.30468 4.76573 -4 ft 0 kts 51°